Hourly Data Report for September 02, 2020

GIMLI CLIMATE
MANITOBA
Current Station Operator: ECCC - MSC

50°38'00.000" N
97°03'00.000" W
230.10 m
5031042
71748
PGH

Download Data

Hourly Data (September 2020)
Hourly Data Report for September 2, 2020
TIME Temp Definition
°C
Dew Point Definition
°C
Rel Hum Definition
%
Wind Dir Definition
10's deg

Wind Spd Definition
km/h
Visibility Definition
km
Stn Press Definition
kPa
Hmdx Definition


Wind Chill Definition


Weather Definition


00:00 11.9 8.3 79 27 20   97.01     LegendNANA
01:00 11.4 7.9 79 27 17   97.11     LegendNANA
02:00 10.8 7.8 82 27 16   97.12     LegendNANA
03:00 9.9 7.5 85 27 14   97.16     LegendNANA
04:00 9.2 7.3 88 26 12   97.26     LegendNANA
05:00 9.4 7.5 88 25 11   97.31     LegendNANA
06:00 9.6 7.7 87 26 12   97.37     LegendNANA
07:00 11.2 8.2 82 27 14   97.39     LegendNANA
08:00 12.9 8.4 74 28 19   97.44     LegendNANA
09:00 14.6 8.5 67 28 16   97.46     LegendNANA
10:00 15.9 8.3 61 25 19   97.43     LegendNANA
11:00 17.2 7.8 54 26 20   97.40     LegendNANA
12:00 17.8 7.4 50 27 25   97.36     LegendNANA
13:00 17.3 7.7 53 25 23   97.36     LegendNANA
14:00 17.7 7.7 52 24 24   97.33     LegendNANA
15:00 16.9 8.6 58 26 16   97.30     LegendNANA
16:00 16.3 9.3 63 26 13   97.32     LegendNANA
17:00 12.9 10.3 84 24 10   97.36     LegendNANA
18:00 12.5 10.4 87 0 1   97.16     LegendNANA
19:00 12.0 10.2 89   0   97.20     LegendNANA
20:00 11.5 9.9 90 0 1   97.19     LegendNANA
21:00 11.1 9.9 92 32 7   97.16     LegendNANA
22:00 10.8 9.6 92 32 13   97.15     LegendNANA
23:00 10.5 9.3 92 31 13   97.13     LegendNANA

Notes on Data Quality.

Legend

  • E = Estimated
  • M = Missing
  • NA = Not Available*
  • [empty] = Indicates an unobserved value
Date modified: